TimeCST,TemperatureF,Dew PointF,Humidity,Sea Level PressureIn,VisibilityMPH,Wind Direction,Wind SpeedMPH,Gust SpeedMPH,PrecipitationIn,Events,Conditions,WindDirDegrees,DateUTC
12:15 AM,10.4,6.8,85,30.00,10.0,WNW,5.8,-,N/A,,Clear,290,2012-12-07 06:15:00
12:35 AM,10.4,6.8,85,30.01,10.0,West,6.9,-,N/A,,Clear,280,2012-12-07 06:35:00
12:55 AM,10.4,6.8,85,30.01,10.0,WSW,5.8,-,N/A,,Clear,250,2012-12-07 06:55:00
1:15 AM,10.4,6.8,85,30.01,10.0,West,4.6,-,N/A,,Clear,260,2012-12-07 07:15:00
1:35 AM,8.6,6.8,92,30.01,10.0,West,5.8,-,N/A,,Mostly Cloudy,260,2012-12-07 07:35:00
1:55 AM,8.6,6.8,92,30.02,10.0,WSW,5.8,-,N/A,,Overcast,240,2012-12-07 07:55:00
2:15 AM,8.6,5.0,85,30.02,10.0,WSW,4.6,-,N/A,,Overcast,240,2012-12-07 08:15:00
2:35 AM,8.6,5.0,85,30.02,10.0,WSW,4.6,-,N/A,,Mostly Cloudy,240,2012-12-07 08:35:00
2:55 AM,8.6,5.0,85,30.03,10.0,SW,5.8,-,N/A,,Scattered Clouds,220,2012-12-07 08:55:00
3:15 AM,6.8,5.0,92,30.03,-9999.0,SW,6.9,-,N/A,,Unknown,220,2012-12-07 09:15:00
3:35 AM,6.8,5.0,92,30.04,-9999.0,SW,5.8,-,N/A,,Unknown,230,2012-12-07 09:35:00
3:55 AM,6.8,5.0,92,30.03,10.0,WSW,3.5,-,N/A,,Scattered Clouds,240,2012-12-07 09:55:00
4:15 AM,6.8,5.0,92,30.03,10.0,SW,4.6,-,N/A,,Partly Cloudy,230,2012-12-07 10:15:00
4:35 AM,6.8,5.0,92,30.03,10.0,SW,4.6,-,N/A,,Clear,220,2012-12-07 10:35:00
4:55 AM,6.8,3.2,85,30.04,10.0,SW,4.6,-,N/A,,Clear,220,2012-12-07 10:55:00
5:15 AM,6.8,3.2,85,30.05,10.0,SSW,4.6,-,N/A,,Clear,210,2012-12-07 11:15:00
5:35 AM,6.8,3.2,85,30.06,-9999.0,SSW,6.9,-,N/A,,Unknown,210,2012-12-07 11:35:00
5:55 AM,5.0,3.2,92,30.06,-9999.0,SW,6.9,-,N/A,,Unknown,220,2012-12-07 11:55:00
6:15 AM,5.0,1.4,85,30.05,-9999.0,SW,5.8,-,N/A,,Unknown,230,2012-12-07 12:15:00
6:35 AM,5.0,1.4,85,30.06,10.0,SW,4.6,-,N/A,,Unknown,220,2012-12-07 12:35:00
6:55 AM,5.0,1.4,85,30.06,-9999.0,SSW,5.8,-,N/A,,Unknown,210,2012-12-07 12:55:00
7:15 AM,5.0,1.4,85,30.08,-9999.0,SW,5.8,-,N/A,,Unknown,220,2012-12-07 13:15:00
7:35 AM,5.0,1.4,85,30.08,-9999.0,SW,4.6,-,N/A,,Unknown,230,2012-12-07 13:35:00
7:55 AM,5.0,1.4,85,30.08,10.0,SW,4.6,-,N/A,,Clear,230,2012-12-07 13:55:00
8:15 AM,5.0,1.4,85,30.09,10.0,SW,5.8,-,N/A,,Clear,220,2012-12-07 14:15:00
8:35 AM,5.0,1.4,85,30.10,-9999.0,SW,6.9,-,N/A,,Unknown,230,2012-12-07 14:35:00
8:55 AM,5.0,1.4,85,30.11,10.0,SW,5.8,-,N/A,,Clear,230,2012-12-07 14:55:00
9:15 AM,6.8,3.2,85,30.11,10.0,West,4.6,-,N/A,,Clear,270,2012-12-07 15:15:00
9:35 AM,6.8,5.0,92,30.11,10.0,NW,4.6,-,N/A,,Clear,310,2012-12-07 15:35:00
9:55 AM,8.6,5.0,85,30.12,10.0,NW,4.6,-,N/A,,Clear,310,2012-12-07 15:55:00
10:15 AM,8.6,6.8,92,30.12,10.0,Calm,Calm,-,N/A,,Clear,0,2012-12-07 16:15:00
10:35 AM,8.6,6.8,92,30.13,10.0,Calm,Calm,-,N/A,,Clear,0,2012-12-07 16:35:00
10:55 AM,10.4,6.8,85,30.13,10.0,Calm,Calm,-,N/A,,Mostly Cloudy,0,2012-12-07 16:55:00
11:15 AM,10.4,6.8,85,30.13,10.0,Calm,Calm,-,N/A,,Mostly Cloudy,0,2012-12-07 17:15:00
11:35 AM,10.4,6.8,85,30.13,10.0,Calm,Calm,-,N/A,Snow,Light Snow,0,2012-12-07 17:35:00
11:55 AM,10.4,6.8,85,30.13,10.0,ENE,3.5,-,N/A,Snow,Light Snow,60,2012-12-07 17:55:00
12:15 PM,10.4,6.8,85,30.12,10.0,East,3.5,-,N/A,Snow,Light Snow,80,2012-12-07 18:15:00
12:35 PM,10.4,6.8,85,30.12,10.0,ENE,3.5,-,N/A,Snow,Light Snow,60,2012-12-07 18:35:00
12:55 PM,12.2,8.6,85,30.11,9.0,NE,4.6,-,N/A,Snow,Light Snow,40,2012-12-07 18:55:00
1:15 PM,12.2,6.8,79,30.11,6.0,NNE,3.5,-,N/A,Snow,Light Snow,20,2012-12-07 19:15:00
1:35 PM,12.2,6.8,79,30.11,10.0,North,3.5,-,N/A,,Partly Cloudy,350,2012-12-07 19:35:00
1:55 PM,12.2,8.6,85,30.11,5.0,NNE,3.5,-,N/A,Snow,Light Snow,20,2012-12-07 19:55:00
2:15 PM,10.4,6.8,85,30.11,10.0,NE,3.5,-,N/A,,Partly Cloudy,40,2012-12-07 20:15:00
2:35 PM,10.4,6.8,85,30.11,10.0,East,3.5,-,N/A,Snow,Light Snow,80,2012-12-07 20:35:00
2:55 PM,10.4,6.8,85,30.11,10.0,ESE,3.5,-,N/A,Snow,Light Snow,110,2012-12-07 20:55:00
3:15 PM,10.4,6.8,85,30.11,10.0,ESE,4.6,-,N/A,,Scattered Clouds,110,2012-12-07 21:15:00
3:35 PM,10.4,6.8,85,30.12,10.0,Calm,Calm,-,N/A,,Scattered Clouds,0,2012-12-07 21:35:00
3:55 PM,10.4,6.8,85,30.12,9.0,Calm,Calm,-,N/A,Snow,Light Snow,0,2012-12-07 21:55:00
4:15 PM,8.6,6.8,92,30.13,10.0,ENE,3.5,-,N/A,,Partly Cloudy,60,2012-12-07 22:15:00
4:35 PM,8.6,6.8,92,30.12,10.0,Calm,Calm,-,N/A,,Clear,0,2012-12-07 22:35:00
4:55 PM,8.6,5.0,85,30.12,10.0,Calm,Calm,-,N/A,,Clear,0,2012-12-07 22:55:00
5:15 PM,6.8,5.0,92,30.12,10.0,Calm,Calm,-,N/A,,Clear,0,2012-12-07 23:15:00
5:35 PM,6.8,5.0,92,30.12,10.0,Calm,Calm,-,N/A,,Scattered Clouds,0,2012-12-07 23:35:00
5:55 PM,6.8,3.2,85,30.12,10.0,Calm,Calm,-,N/A,,Mostly Cloudy,0,2012-12-07 23:55:00
6:15 PM,6.8,1.4,79,30.13,10.0,Calm,Calm,-,N/A,,Partly Cloudy,0,2012-12-08 00:15:00
6:35 PM,5.0,1.4,85,30.13,10.0,Calm,Calm,-,N/A,,Scattered Clouds,0,2012-12-08 00:35:00
7:15 PM,5.0,1.4,85,30.13,10.0,Calm,Calm,-,N/A,,Clear,0,2012-12-08 01:15:00
7:35 PM,5.0,1.4,85,30.13,10.0,Calm,Calm,-,N/A,,Clear,0,2012-12-08 01:35:00
7:55 PM,3.2,1.4,92,30.14,10.0,Calm,Calm,-,N/A,,Clear,0,2012-12-08 01:55:00
8:15 PM,3.2,1.4,92,30.13,10.0,Calm,Calm,-,N/A,,Clear,0,2012-12-08 02:15:00
8:35 PM,3.2,1.4,92,30.13,10.0,Calm,Calm,-,N/A,,Partly Cloudy,0,2012-12-08 02:35:00
8:55 PM,1.4,-0.4,92,30.13,10.0,Calm,Calm,-,N/A,,Partly Cloudy,0,2012-12-08 02:55:00
9:15 PM,1.4,-0.4,92,30.12,10.0,SSW,4.6,-,N/A,,Partly Cloudy,210,2012-12-08 03:15:00
9:35 PM,1.4,-0.4,92,30.12,10.0,SW,3.5,-,N/A,,Clear,230,2012-12-08 03:35:00
9:55 PM,1.4,-0.4,92,30.11,10.0,Calm,Calm,-,N/A,,Clear,0,2012-12-08 03:55:00
10:15 PM,1.4,-0.4,92,30.11,10.0,SW,3.5,-,N/A,,Clear,220,2012-12-08 04:15:00
10:35 PM,1.4,-0.4,92,30.11,10.0,SSW,3.5,-,N/A,,Clear,210,2012-12-08 04:35:00
10:55 PM,1.4,-0.4,92,30.10,10.0,Calm,Calm,-,N/A,,Clear,0,2012-12-08 04:55:00
11:15 PM,1.4,-0.4,92,30.10,-9999.0,SSW,4.6,-,N/A,,Unknown,210,2012-12-08 05:15:00
11:35 PM,-0.4,-0.4,100,30.09,10.0,SSW,3.5,-,N/A,,Overcast,200,2012-12-08 05:35:00
11:55 PM,-0.4,-0.4,100,30.09,10.0,SSW,4.6,-,N/A,,Overcast,200,2012-12-08 05:55:00